Russellville, AR

12:35 PM CST on November 24, 2017 (GMT -0600)
Russellville Regional

Weather History for KRUE - April, 2013

Change the Weather History Date:

Monday, April 8, 2013

  Actual Average (KHOT) Record (KHOT)
Temperature  
Mean Temperature 71 °F -  
Max Temperature 81 °F 74 °F 87 °F (1978)
Min Temperature 63 °F 48 °F 28 °F (2007)
Cooling Degree Days 6    
Growing Degree Days 21 (Base 50)    
Moisture  
Dew Point 57 °F    
Average Humidity 66    
Maximum Humidity 76    
Minimum Humidity 47    
Precipitation  
Precipitation 0.00 in - - ()
Sea Level Pressure  
Sea Level Pressure 29.81 in    
Wind  
Wind Speed 3 mph (SE)    
Max Wind Speed 9 mph    
Max Gust Speed 17 mph    
Visibility 10 miles    
Events      
Averages and records for this station are not official NWS values.
T = Trace of Precipitation, MM = Missing Value Source: NWS Daily Summary

Daily Weather History Graph

Daily Weather History Graph

Search for Another Location

Airport or City:

Trip Planner

Search our weather history database for the weather conditions in past years. The results will help you decide how hot, cold, wet, or windy it might be!

Date:

Astronomy

Apr. 08, 2013 Rise Set
Actual Time 6:49 AM CDT 7:39 PM CDT
Civil Twilight 6:23 AM CDT 8:05 PM CDT
Nautical Twilight 5:52 AM CDT 8:36 PM CDT
Astronomical Twilight 5:21 AM CDT 9:07 PM CDT
Moon 5:36 AM CDT (4/8) 6:16 PM CDT (4/8)
Length of Visible Light 13h 42m
Length of Day
12h 50m
Waning Crescent, 3% of the Moon is Illuminated
Apr 8
Waning Crescent
Apr 10
New
Apr 18
First Quarter
Apr 25
Full
May 2
Last Quarter

Hourly Weather History & Observations

Time (CDT) Temp. Dew Point Humidity Pressure Visibility Wind Dir Wind Speed Gust Speed Precip Events Conditions
12:53 AM 66.0 °F 55.0 °F 68% 29.81 in 10.0 mi Calm Calm - N/A   Overcast
1:53 AM 64.9 °F 55.0 °F 70% 29.81 in 10.0 mi ESE 4.6 mph - N/A   Overcast
2:53 AM 64.9 °F 55.0 °F 70% 29.79 in 10.0 mi Variable 3.5 mph - N/A   Overcast
3:53 AM 63.0 °F 55.0 °F 75% 29.78 in 10.0 mi Calm Calm - N/A   Overcast
4:53 AM 64.0 °F 55.9 °F 75% 29.79 in 10.0 mi Calm Calm - N/A   Overcast
5:53 AM 66.0 °F 55.9 °F 70% 29.80 in 10.0 mi Variable 3.5 mph - N/A   Overcast
6:53 AM 66.0 °F 55.9 °F 70% 29.81 in 10.0 mi Variable 4.6 mph - N/A   Overcast
7:53 AM 66.0 °F 55.9 °F 70% 29.84 in 10.0 mi Variable 3.5 mph - N/A   Overcast
8:53 AM 64.9 °F 55.9 °F 73% 29.86 in 10.0 mi Calm Calm - N/A   Overcast
9:35 AM 66.2 °F 57.2 °F 73% 29.87 in 10.0 mi SE 4.6 mph - N/A   Overcast
9:53 AM 66.0 °F 57.0 °F 73% 29.86 in 10.0 mi Calm Calm - N/A   Overcast
10:13 AM 66.2 °F 57.2 °F 73% 29.88 in 10.0 mi Variable 3.5 mph - N/A   Overcast
10:53 AM 66.9 °F 57.9 °F 73% 29.87 in 10.0 mi South 5.8 mph - N/A   Overcast
11:53 AM 68.0 °F 59.0 °F 73% 29.86 in 10.0 mi SSE 8.1 mph - N/A   Overcast
12:53 PM 66.9 °F 59.0 °F 76% 29.84 in 10.0 mi Variable 6.9 mph - N/A   Overcast
1:27 PM 69.8 °F 60.8 °F 73% 29.85 in 10.0 mi Variable 5.8 mph - N/A   Overcast
1:53 PM 71.1 °F 60.1 °F 68% 29.81 in 10.0 mi Variable 3.5 mph - N/A   Overcast
2:11 PM 71.6 °F 60.8 °F 69% 29.82 in 10.0 mi Variable 3.5 mph - N/A   Overcast
2:20 PM 73.4 °F 60.8 °F 65% 29.82 in 10.0 mi Variable 4.6 mph - N/A   Overcast
2:53 PM 73.0 °F 59.0 °F 61% 29.78 in 10.0 mi East 9.2 mph 17.3 mph N/A   Mostly Cloudy
3:53 PM 77.0 °F 59.0 °F 54% 29.75 in 10.0 mi SE 8.1 mph - N/A   Mostly Cloudy
4:53 PM 79.0 °F 57.0 °F 47% 29.73 in 10.0 mi South 5.8 mph - N/A   Mostly Cloudy
5:53 PM 79.0 °F 57.0 °F 47% 29.74 in 10.0 mi South 6.9 mph - N/A   Overcast
6:53 PM 78.1 °F 57.0 °F 48% 29.75 in 10.0 mi Variable 3.5 mph - N/A   Overcast
7:53 PM 75.9 °F 57.0 °F 52% 29.75 in 10.0 mi Calm Calm - N/A   Overcast
8:53 PM 75.0 °F 57.0 °F 53% 29.76 in 10.0 mi Variable 3.5 mph - N/A   Overcast
9:53 PM 71.1 °F 57.9 °F 63% 29.78 in 10.0 mi Calm Calm - N/A   Clear
10:53 PM 73.0 °F 57.9 °F 59% 29.78 in 10.0 mi Variable 6.9 mph - N/A   Clear
11:53 PM 72.0 °F 57.0 °F 59% 29.79 in 10.0 mi Variable 6.9 mph - N/A   Clear